Última Atualização: 20:35 - 06/09/2026

Relatório Meteorológico da Estação Guaratiba
Dia Hora Direção Vento (graus) Velocidade Vento (Km/h) Temperatura (celsius) Pressão (hPa) Umidade (%)
06/09/2026 20:30:00 224 15,5 16,8 1017,2 100
06/09/2026 20:15:00 225 14,1 16,9 1017,2 100
06/09/2026 20:00:00 227 8,1 16,9 1017,0 100
06/09/2026 19:45:00 224 32,8 17,2 1016,7 100
06/09/2026 19:30:00 225 13,8 17,1 1016,7 100
06/09/2026 19:15:00 226 6,0 17,1 1016,5 100
06/09/2026 19:00:00 228 10,9 17,1 1016,5 100
06/09/2026 18:45:00 227 16,2 17,6 1016,0 100
06/09/2026 18:30:00 226 20,8 17,6 1016,0 100
06/09/2026 18:15:00 226 15,5 17,5 1015,9 100
06/09/2026 18:00:00 225 12,7 17,4 1015,4 100
06/09/2026 17:45:00 224 17,3 17,3 1015,5 100
06/09/2026 17:30:00 232 3,9 17,1 1015,3 100
06/09/2026 17:15:00 231 8,5 17,1 1015,2 100
06/09/2026 17:00:00 229 20,8 17,0 1015,3 100
06/09/2026 16:45:00 230 18,0 17,4 1014,8 100
06/09/2026 16:30:00 230 4,2 17,2 1014,8 100
06/09/2026 16:15:00 231 13,1 17,1 1014,6 100
06/09/2026 16:00:00 228 18,7 17,1 1014,6 100
06/09/2026 15:45:00 241 13,4 17,3 1014,3 100
06/09/2026 15:30:00 238 4,9 17,3 1014,1 100
06/09/2026 15:15:00 236 10,2 17,2 1014,2 100
06/09/2026 15:00:00 231 9,9 17,2 1014,1 100
06/09/2026 14:45:00 231 7,1 16,9 1014,1 100
06/09/2026 14:30:00 230 8,5 16,8 1014,3 100
06/09/2026 14:15:00 233 6,0 16,9 1013,9 100
06/09/2026 14:00:00 231 29,3 16,7 1014,1 100
06/09/2026 13:45:00 236 12,7 17,1 1014,1 100
06/09/2026 13:30:00 242 28,9 17,9 1014,1 100
06/09/2026 13:15:00 228 32,1 18,2 1014,3 100
06/09/2026 13:00:00 230 8,1 17,8 1014,3 100
06/09/2026 12:45:00 229 25,8 17,3 1014,3 100
06/09/2026 12:30:00 229 16,2 17,3 1014,8 100
06/09/2026 12:15:00 230 5,6 17,1 1014,8 100
06/09/2026 12:00:00 233 18,7 17,4 1014,8 100
06/09/2026 11:45:00 234 34,2 17,4 1014,8 100
06/09/2026 11:30:00 240 7,4 18,1 1014,8 100
06/09/2026 11:15:00 234 20,1 18,2 1014,8 100
06/09/2026 11:00:00 232 13,8 18,2 1015,0 100
06/09/2026 10:45:00 233 7,8 19,0 1015,0 100
06/09/2026 10:30:00 235 7,4 19,0 1015,3 100
06/09/2026 10:15:00 235 0,7 19,2 1015,0 100
06/09/2026 10:00:00 234 4,6 18,9 1015,0 100
06/09/2026 09:45:00 234 4,6 18,7 1014,9 100
06/09/2026 09:30:00 231 4,6 18,5 1015,0 100
06/09/2026 09:15:00 230 7,1 18,5 1014,8 100
06/09/2026 09:00:00 231 6,0 18,3 1014,6 100
06/09/2026 08:45:00 229 2,5 18,5 1014,6 100
06/09/2026 08:30:00 239 4,6 18,5 1014,6 100